Regional Weather Roundup
Issued by NWS Northern Indiana

Home | Current Version | Previous Version | Graphics & Text | Print | Product List | Glossary On
Versions: 1 2 3 4 5 6 7 8 9 10 11 12 13 14 15 16 17 18 19 20 21 22 23 24 25 26 27 28 29 30 31 32 33 34 35 36 37 38 39 40 41 42 43 44 45 46 47 48 49 50
000
ASUS43 KIWX 222300
RWRIWX

KIWX WEATHER ROUNDUP
NATIONAL WEATHER SERVICE NORTHERN INDIANA
600 PM EST MON DEC 22 2014

NOTE: "FAIR" INDICATES FEW OR NO CLOUDS BELOW 12,000 FEET WITH NO
SIGNIFICANT WEATHER AND/OR OBSTRUCTIONS TO VISIBILITY.

* THESE STATIONS ARE NOT UNDER NWS QUALITY CONTROL. THEY ALSO MAY NOT
  REPORT WEATHER SUCH AS PRECIPITATION OR FOG.

INZ001>027-230000-
NORTHERN INDIANA

CITY           SKY/WX    TMP DP  RH WIND       PRES   REMARKS
VALPARAISO     LGT RAIN  37  37 100 E14       29.73F FOG
SOUTH BEND     LGT RAIN  37  34  89 SE14      29.78F FOG
ELKHART*       DRIZZLE   37  32  81 E10       29.79F
GOSHEN         CLOUDY    37  33  85 SE13      29.79F FOG
ANGOLA*        PTCLDY    36  30  80 E13       29.82F
FORT WAYNE     CLOUDY    37  33  85 E12       29.82F

$$
INZ028>050-230000-
CENTRAL INDIANA

CITY           SKY/WX    TMP DP  RH WIND       PRES   REMARKS
LAFAYETTE      LGT RAIN  41  39  93 E13       29.71F
KOKOMO*        CLOUDY    39  36  87 SE12      29.76S
MUNCIE*        CLOUDY    40  35  83 E8        29.78F
INDIANAPOLIS   LGT RAIN  43  38  82 E12       29.72F

$$
MIZ043>046-050>051-056>058-064>065-071>073-077>080-230000-
SOUTHWEST LOWER MICHIGAN

CITY           SKY/WX    TMP DP  RH WIND       PRES   REMARKS
BATTLE CREEK   CLOUDY    37  31  78 E10       29.84S
BENTON HARBOR  LGT RAIN  36  35  96 E12G22    29.77F FOG
COLDWATER*     CLOUDY    35  32  87 MISG      29.83F
HILLSDALE*     CLOUDY    35  33  92 E13       29.85F WCI  26
HOLLAND        LGT RAIN  37  34  89 E14       29.82S FOG
GRAND RAPIDS   LGT RAIN  35  31  85 E14       29.84F FOG     WCI  26
KALAMAZOO      CLOUDY    37  32  82 E10G17    29.82S
STURGIS*       CLOUDY    36  34  93 E10       29.81S
THREE RIVERS*  CLOUDY    36  32  85 SE7       29.82S

$$
OHZ001>008-015>018-024>025-230000-
NORTHWEST OHIO

CITY           SKY/WX    TMP DP  RH WIND       PRES   REMARKS
DEFIANCE       CLOUDY    38  31  76 E8        29.87F
FINDLAY        MOCLDY    40  33  76 E10       29.86F
TOLEDO EXPRESS CLOUDY    34  29  82 E8        29.89F WCI  27
TOLEDO METCALF CLOUDY    35  30  82 NE8       29.91F WCI  29
LIMA           CLOUDY    42  34  73 E8        29.84S

$$
AND FOR LAKE MICHIGAN COASTAL AND OPEN LAKE BUOY OBSERVATIONS

STATION/POSITION TEMP    WIND        PRES    VSBY  WAVE
                 AIR SEA DIR/SP/G                  HT/PER
                 (F)     (DEG/KT/KT) (MB)    (MI)  (FT/S)
CALUMET HARBOR    39     110/  7/ 13 1005.0F
SAINT JOSEPH      37      90/  1/  9 1008.8F

$$
&&



USA.gov is the U.S. government's official web portal to all federal, state and local government web resources and services.